Location: El Bakhil
(32.7726°N, 5.5387°W)
Time: 04:41:30
(UTC+00:00)

Cosmos 2278 Rocket - Pass Details

Date: 03 March 2021
Orbit: 841 x 845 km, 71.0° (Epoch: 12 April)

Event Time Altitude Azimuth Distance (km) Brightness Sun altitude
Rises 20:27:16 0° 356° (N) 3,407 5.5 -27.2°
Reaches altitude 10° 20:30:26 10° 13° (NNE) 2,468 4.6 -27.9°
Enters shadow 20:30:47 11° 16° (NNE) 2,378 4.5 -28.0°
